Location: *
(43.9900°N, 3.4811°E)
Time: 13:07:29
(UTC+00:00)

Cosmos 2151 Rocket - Pass Details

Date: 25 August 2019
Orbit: 618 x 642 km, 82.5° (Epoch: 22 October)

Event Time Altitude Azimuth Distance (km) Brightness Sun altitude
Exits shadow 21:27:48 43° 25° (NNE) 895 4.4 -26.8°
Drops below altitude 10° 21:30:53 10° 13° (NNE) 2,021 6.6 -27.1°
Sets 21:33:08 0° 11° (N) 2,930 7.6 -27.4°
